TimeAKST,TemperatureF,Dew PointF,Humidity,Sea Level PressureIn,VisibilityMPH,Wind Direction,Wind SpeedMPH,Gust SpeedMPH,PrecipitationIn,Events,Conditions,WindDirDegrees,DateUTC
12:16 AM,5.0,1.4,85,30.08,7.0,Calm,Calm,-,N/A,,Overcast,0,2013-01-09 09:16:00
12:36 AM,5.0,1.4,85,30.08,7.0,Calm,Calm,-,N/A,,Overcast,0,2013-01-09 09:36:00
12:56 AM,3.2,1.4,92,30.09,10.0,Calm,Calm,-,N/A,,Overcast,0,2013-01-09 09:56:00
1:16 AM,3.2,1.4,92,30.09,10.0,Calm,Calm,-,N/A,,Overcast,0,2013-01-09 10:16:00
1:36 AM,5.0,1.4,85,30.09,10.0,Calm,Calm,-,N/A,,Overcast,0,2013-01-09 10:36:00
1:56 AM,5.0,3.2,92,30.10,10.0,Calm,Calm,-,N/A,,Overcast,0,2013-01-09 10:56:00
2:16 AM,5.0,1.4,85,30.10,10.0,Calm,Calm,-,N/A,,Overcast,0,2013-01-09 11:16:00
2:36 AM,5.0,1.4,85,30.09,10.0,Calm,Calm,-,N/A,,Overcast,0,2013-01-09 11:36:00
3:16 AM,5.0,3.2,92,30.10,10.0,Calm,Calm,-,N/A,,Overcast,0,2013-01-09 12:16:00
3:36 AM,6.8,3.2,85,30.10,10.0,Calm,Calm,-,N/A,,Overcast,0,2013-01-09 12:36:00
3:56 AM,5.0,1.4,85,30.10,10.0,Calm,Calm,-,N/A,,Overcast,0,2013-01-09 12:56:00
4:16 AM,6.8,3.2,85,30.10,10.0,Calm,Calm,-,N/A,,Overcast,0,2013-01-09 13:16:00
4:36 AM,6.8,1.4,79,30.10,10.0,Calm,Calm,-,N/A,,Overcast,0,2013-01-09 13:36:00
4:56 AM,6.8,3.2,85,30.09,10.0,Calm,Calm,-,N/A,,Overcast,0,2013-01-09 13:56:00
5:16 AM,6.8,3.2,85,30.09,10.0,Calm,Calm,-,N/A,,Overcast,0,2013-01-09 14:16:00
5:36 AM,6.8,3.2,85,30.09,10.0,Calm,Calm,-,N/A,,Overcast,0,2013-01-09 14:36:00
5:56 AM,6.8,3.2,85,30.09,10.0,Calm,Calm,-,N/A,,Overcast,0,2013-01-09 14:56:00
6:16 AM,6.8,3.2,85,30.09,10.0,Calm,Calm,-,N/A,,Overcast,0,2013-01-09 15:16:00
6:36 AM,6.8,3.2,85,30.09,10.0,Calm,Calm,-,N/A,,Overcast,0,2013-01-09 15:36:00
6:56 AM,6.8,3.2,85,30.08,10.0,Calm,Calm,-,N/A,,Overcast,0,2013-01-09 15:56:00
7:16 AM,6.8,3.2,85,30.08,10.0,Calm,Calm,-,N/A,,Overcast,0,2013-01-09 16:16:00
7:36 AM,6.8,3.2,85,30.07,9.0,Calm,Calm,-,N/A,,Overcast,0,2013-01-09 16:36:00
7:56 AM,6.8,3.2,85,30.07,10.0,Calm,Calm,-,N/A,,Overcast,0,2013-01-09 16:56:00
8:16 AM,6.8,3.2,85,30.07,10.0,Calm,Calm,-,N/A,,Overcast,0,2013-01-09 17:16:00
8:36 AM,6.8,3.2,85,30.07,10.0,Calm,Calm,-,N/A,,Overcast,0,2013-01-09 17:36:00
8:56 AM,8.6,5.0,85,30.06,10.0,Calm,Calm,-,N/A,,Overcast,0,2013-01-09 17:56:00
9:16 AM,8.6,3.2,79,30.06,10.0,Calm,Calm,-,N/A,,Overcast,0,2013-01-09 18:16:00
9:36 AM,6.8,3.2,85,30.06,10.0,Calm,Calm,-,N/A,,Overcast,0,2013-01-09 18:36:00
9:56 AM,8.6,5.0,85,30.05,10.0,Calm,Calm,-,N/A,,Overcast,0,2013-01-09 18:56:00
10:16 AM,8.6,5.0,85,30.06,10.0,Calm,Calm,-,N/A,,Overcast,0,2013-01-09 19:16:00
10:36 AM,8.6,3.2,79,30.05,10.0,Calm,Calm,-,N/A,,Overcast,0,2013-01-09 19:36:00
10:56 AM,8.6,5.0,85,30.05,10.0,Calm,Calm,-,N/A,,Overcast,0,2013-01-09 19:56:00
11:16 AM,6.8,5.0,92,30.04,10.0,Calm,Calm,-,N/A,,Overcast,0,2013-01-09 20:16:00
11:36 AM,6.8,5.0,92,30.04,10.0,Calm,Calm,-,N/A,,Overcast,0,2013-01-09 20:36:00
11:56 AM,6.8,3.2,85,30.04,10.0,Calm,Calm,-,N/A,,Overcast,0,2013-01-09 20:56:00
12:16 PM,6.8,6.8,100,30.04,10.0,Calm,Calm,-,N/A,,Overcast,0,2013-01-09 21:16:00
12:36 PM,8.6,3.2,79,30.03,10.0,Calm,Calm,-,N/A,,Overcast,0,2013-01-09 21:36:00
12:56 PM,8.6,5.0,85,30.03,10.0,Calm,Calm,-,N/A,,Overcast,0,2013-01-09 21:56:00
1:16 PM,8.6,5.0,85,30.02,10.0,Calm,Calm,-,N/A,,Partly Cloudy,0,2013-01-09 22:16:00
1:36 PM,6.8,3.2,85,30.02,10.0,Calm,Calm,-,N/A,,Clear,0,2013-01-09 22:36:00
1:56 PM,6.8,5.0,92,30.01,10.0,Calm,Calm,-,N/A,,Clear,0,2013-01-09 22:56:00
2:16 PM,3.2,1.4,92,30.01,10.0,Calm,Calm,-,N/A,,Clear,0,2013-01-09 23:16:00
2:36 PM,6.8,5.0,92,29.99,10.0,Calm,Calm,-,N/A,,Clear,0,2013-01-09 23:36:00
2:56 PM,6.8,1.4,79,29.98,10.0,Calm,Calm,-,N/A,,Clear,0,2013-01-09 23:56:00
3:16 PM,5.0,3.2,92,29.97,10.0,Calm,Calm,-,N/A,,Scattered Clouds,0,2013-01-10 00:16:00
3:36 PM,3.2,1.4,92,29.97,10.0,Calm,Calm,-,N/A,,Partly Cloudy,0,2013-01-10 00:36:00
3:56 PM,3.2,1.4,92,29.96,10.0,Calm,Calm,-,N/A,,Scattered Clouds,0,2013-01-10 00:56:00
4:16 PM,5.0,1.4,85,29.95,10.0,Calm,Calm,-,N/A,,Scattered Clouds,0,2013-01-10 01:16:00
4:36 PM,3.2,3.2,100,29.94,10.0,Calm,Calm,-,N/A,,Mostly Cloudy,0,2013-01-10 01:36:00
4:56 PM,1.4,-4.0,78,29.93,10.0,Calm,Calm,-,N/A,,Mostly Cloudy,0,2013-01-10 01:56:00
5:16 PM,3.2,1.4,92,29.92,10.0,Calm,Calm,-,N/A,,Scattered Clouds,0,2013-01-10 02:16:00
5:36 PM,5.0,3.2,92,29.92,10.0,Calm,Calm,-,N/A,,Overcast,0,2013-01-10 02:36:00
5:56 PM,6.8,3.2,85,29.91,10.0,Calm,Calm,-,N/A,,Overcast,0,2013-01-10 02:56:00
6:16 PM,6.8,1.4,79,29.90,10.0,Calm,Calm,-,N/A,,Mostly Cloudy,0,2013-01-10 03:16:00
6:36 PM,6.8,3.2,85,29.90,10.0,Calm,Calm,-,N/A,,Overcast,0,2013-01-10 03:36:00
6:56 PM,6.8,1.4,79,29.88,10.0,Calm,Calm,-,N/A,,Overcast,0,2013-01-10 03:56:00
7:16 PM,6.8,3.2,85,29.87,10.0,Calm,Calm,-,N/A,,Overcast,0,2013-01-10 04:16:00
7:36 PM,6.8,3.2,85,29.87,10.0,Calm,Calm,-,N/A,,Overcast,0,2013-01-10 04:36:00
7:56 PM,6.8,1.4,79,29.85,10.0,Calm,Calm,-,N/A,,Overcast,0,2013-01-10 04:56:00
8:16 PM,5.0,1.4,85,29.85,10.0,Calm,Calm,-,N/A,,Overcast,0,2013-01-10 05:16:00
8:36 PM,6.8,3.2,85,29.85,10.0,Calm,Calm,-,N/A,,Overcast,0,2013-01-10 05:36:00
8:56 PM,6.8,3.2,85,29.84,10.0,Calm,Calm,-,N/A,,Overcast,0,2013-01-10 05:56:00
9:16 PM,6.8,1.4,79,29.84,10.0,Calm,Calm,-,N/A,,Overcast,0,2013-01-10 06:16:00
9:36 PM,5.0,1.4,85,29.84,10.0,Calm,Calm,-,N/A,,Overcast,0,2013-01-10 06:36:00
9:56 PM,5.0,1.4,85,29.83,10.0,Calm,Calm,-,N/A,,Overcast,0,2013-01-10 06:56:00
10:16 PM,6.8,3.2,85,29.83,10.0,Calm,Calm,-,N/A,,Overcast,0,2013-01-10 07:16:00
10:36 PM,6.8,3.2,85,29.83,10.0,Calm,Calm,-,N/A,,Overcast,0,2013-01-10 07:36:00
10:56 PM,6.8,1.4,79,29.82,10.0,Calm,Calm,-,N/A,,Overcast,0,2013-01-10 07:56:00
11:16 PM,6.8,3.2,85,29.82,10.0,Calm,Calm,-,N/A,,Overcast,0,2013-01-10 08:16:00
11:36 PM,6.8,3.2,85,29.83,10.0,Calm,Calm,-,N/A,,Overcast,0,2013-01-10 08:36:00
11:56 PM,6.8,3.2,85,29.83,10.0,Calm,Calm,-,N/A,,Overcast,0,2013-01-10 08:56:00